Weather History for Topeka, KS

Change the Weather History Date:

Tuesday, December 16, 2014

  Actual Average Record
Temperature  
Mean Temperature 32 °F 32 °F  
Max Temperature 35 °F 41 °F 66 °F (1933)
Min Temperature 28 °F 22 °F -15 °F (1989)
Degree Days  
Heating Degree Days 33 34  
Month to date heating degree days 408 503  
Since 1 July heating degree days 1439 1497  
Cooling Degree Days 0 0  
Month to date cooling degree days 0 0  
Year to date cooling degree days 1611 1422  
Moisture  
Dew Point 22 °F    
Average Humidity 70    
Maximum Humidity 78    
Minimum Humidity 61    
Precipitation  
Precipitation 0.00 in 0.05 in 0.33 in (1928)
Month to date precipitation 1.91 0.80  
Year to date precipitation 30.79 35.91  
Snow  
Snow 0.00 in 0.20 in 2.90 in (2008)
Month to date snowfall T 2.5  
Year to date snowfall 23.5 15.1  
Since 1 July snowfall 0.4 3.8  
Snow Depth 0.00 in    
Sea Level Pressure  
Sea Level Pressure 30.31 in    
Wind  
Wind Speed 14 mph (NW)    
Max Wind Speed 29 mph    
Max Gust Speed 36 mph    
Visibility 10 miles    
Events      
T = Trace of Precipitation, MM = Missing Value Source: NWS Daily Summary

Daily Weather History Graph

Daily Weather History Graph

Search for Another Location

Airport:

Trip Planner

Search our weather history database for the weather conditions in past years. The results will help you decide how hot, cold, wet, or windy it might be!

Date:

Astronomy

Dec. 16, 2014 Rise Set
Actual Time 7:35 AM CST 5:01 PM CST
Civil Twilight 7:05 AM CST 5:31 PM CST
Nautical Twilight 6:31 AM CST 6:04 PM CST
Astronomical Twilight 5:58 AM CST 6:37 PM CST
Moon 1:53 AM CST (12/16) 1:30 PM CST (12/16)
Length of Visible Light 10h 26m
Length of Day
9h 26m
Waning Crescent, 29% of the Moon is Illuminated
Dec 16
Waning Crescent
Dec 21
New
Dec 28
First Quarter
Jan 4
Full
Jan 13
Last Quarter

Hourly Weather History & Observations

Time (CST) Temp. Windchill Dew Point Humidity Pressure Visibility Wind Dir Wind Speed Gust Speed Precip Events Conditions
12:53 AM 32.0 °F 20.1 °F 23.0 °F 69% 30.06 in 10.0 mi NW 19.6 mph 31.1 mph N/A   Overcast
1:53 AM 30.9 °F 19.4 °F 21.9 °F 69% 30.09 in 10.0 mi NW 17.3 mph 28.8 mph N/A   Overcast
2:53 AM 30.9 °F 17.8 °F 21.9 °F 69% 30.12 in 10.0 mi WNW 23.0 mph 31.1 mph N/A   Overcast
3:53 AM 30.9 °F 16.9 °F 21.9 °F 69% 30.14 in 10.0 mi NW 26.5 mph 35.7 mph N/A   Overcast
4:53 AM 30.9 °F 17.2 °F 23.0 °F 72% 30.17 in 10.0 mi NW 25.3 mph 33.4 mph N/A   Overcast
5:53 AM 30.9 °F 19.4 °F 24.1 °F 76% 30.19 in 10.0 mi NW 17.3 mph 24.2 mph N/A   Overcast
6:53 AM 30.9 °F 18.4 °F 24.1 °F 76% 30.23 in 10.0 mi NW 20.7 mph 33.4 mph N/A   Overcast
7:53 AM 30.0 °F 16.9 °F 21.9 °F 72% 30.27 in 10.0 mi WNW 21.9 mph 27.6 mph N/A   Overcast
8:53 AM 28.9 °F 18.2 °F 21.0 °F 72% 30.30 in 10.0 mi NW 13.8 mph - N/A   Overcast
9:53 AM 30.0 °F 18.3 °F 21.0 °F 69% 30.35 in 10.0 mi NNW 17.3 mph 24.2 mph N/A   Overcast
10:53 AM 30.9 °F 20.2 °F 21.0 °F 67% 30.36 in 10.0 mi WNW 15.0 mph - N/A   Overcast
11:53 AM 32.0 °F 22.1 °F 21.9 °F 66% 30.36 in 10.0 mi WNW 13.8 mph - N/A   Overcast
12:53 PM 33.1 °F 23.9 °F 23.0 °F 66% 30.35 in 10.0 mi NW 12.7 mph - N/A   Overcast
1:53 PM 34.0 °F 24.6 °F 21.9 °F 61% 30.35 in 10.0 mi NW 13.8 mph 21.9 mph N/A   Mostly Cloudy
2:53 PM 34.0 °F 25.0 °F 21.9 °F 61% 30.35 in 10.0 mi NNW 12.7 mph - N/A   Mostly Cloudy
3:29 PM 34.0 °F 26.0 °F 21.9 °F 61% 30.32 in 10.0 mi NNW 10.4 mph - N/A   Scattered Clouds
3:42 PM 34.0 °F 24.6 °F 21.9 °F 61% 30.33 in 10.0 mi WNW 13.8 mph - N/A   Mostly Cloudy
3:53 PM 32.0 °F 24.2 °F 21.9 °F 66% 30.35 in 10.0 mi NW 9.2 mph - N/A   Scattered Clouds
4:05 PM 33.1 °F 26.1 °F 21.9 °F 64% 30.33 in 10.0 mi NW 8.1 mph 17.3 mph N/A   Mostly Cloudy
4:53 PM 30.0 °F 21.1 °F 21.0 °F 69% 30.37 in 10.0 mi NNW 10.4 mph - N/A   Scattered Clouds
5:11 PM 30.0 °F 22.4 °F 21.0 °F 69% 30.35 in 10.0 mi NNW 8.1 mph - N/A   Mostly Cloudy
5:53 PM 28.9 °F 21.9 °F 21.0 °F 72% 30.38 in 10.0 mi NNW 6.9 mph - N/A   Overcast
6:23 PM 28.9 °F 20.4 °F 21.0 °F 72% 30.36 in 10.0 mi North 9.2 mph - N/A   Scattered Clouds
6:53 PM 28.4 °F 22.2 °F 21.2 °F 74% 30.35 in 10.0 mi NNW 5.8 mph - N/A   Clear
7:21 PM 28.9 °F 22.8 °F 21.0 °F 72% 30.35 in 10.0 mi North 5.8 mph - N/A   Mostly Cloudy
7:53 PM 28.9 °F 25.2 °F 21.0 °F 72% 30.39 in 10.0 mi NNW 3.5 mph - N/A   Overcast
8:53 PM 28.0 °F 20.8 °F 21.0 °F 75% 30.40 in 10.0 mi NNW 6.9 mph - N/A   Overcast
9:53 PM 28.0 °F 20.0 °F 19.9 °F 72% 30.40 in 10.0 mi North 8.1 mph - N/A   Overcast
10:53 PM 28.0 °F 22.8 °F 21.0 °F 75% 30.40 in 10.0 mi NNW 4.6 mph - N/A   Overcast
11:53 PM 28.0 °F 20.8 °F 19.9 °F 72% 30.40 in 10.0 mi North 6.9 mph - N/A   Overcast